Location: Bon Acre
(42.6442°N, 73.5758°W)
Time: 02:15:59
(UTC+00:00)

Cosmos 2369 - Pass Details

Date: 14 December 2025
Orbit: 838 x 854 km, 71.0° (Epoch: 12 January)

Event Time Altitude Azimuth Distance (km) Brightness Sun altitude
Rises 22:45:42 0° 198° (SSW) 3,406 7.4 -14.9°
Reaches altitude 10° 22:48:08 10° 197° (SSW) 2,475 6.6 -15.3°
Maximum altitude 22:53:49 77° 112° (ESE) 878 3.6 -16.3°
Enters shadow 22:58:32 16° 28° (NNE) 2,116 5.4 -17.1°
